Regional Weather Roundup
Issued by NWS Charleston, WV

Home | Current Version | Previous Version | Graphics & Text | Print | Product List | Glossary On
Versions: 1 2 3 4 5 6 7 8 9 10 11 12 13 14 15 16 17 18 19 20 21 22 23 24 25 26 27 28 29 30 31 32 33 34 35 36 37 38 39 40 41 42 43 44 45 46 47 48 49 50
000
ASUS41 KRLX 290610
RWRRLX
West Virginia Regional Weather Roundup
National Weather Service Charleston WV
200 AM EDT THU SEP 29 2016

Note: "fair" indicates few or no clouds below 12,000 feet with no
significant weather and/or obstructions to visibility.

WVZ003-290700-
Northern Panhandle of West Virginia

CITY           SKY/WX    TMP DP  RH WIND       PRES   REMARKS
WHEELING       CLOUDY    58  51  78 W6        30.02S
$$

WVZ009-290700-
Northwest West Virginia

CITY           SKY/WX    TMP DP  RH WIND       PRES   REMARKS
PARKERSBURG    LGT RAIN  58  53  84 E6        30.03S
$$

WVZ006-290700-
Western West Virginia

CITY           SKY/WX    TMP DP  RH WIND       PRES   REMARKS
HUNTINGTON     LGT RAIN  58  56  93 S3        29.98S
$$

WVZ015-290700-
West Central West Virginia

CITY           SKY/WX    TMP DP  RH WIND       PRES   REMARKS
CHARLESTON     CLOUDY    59  52  77 E3        30.00F
$$

WVZ022-031-290700-
North Central West Virginia

CITY           SKY/WX    TMP DP  RH WIND       PRES   REMARKS
CLARKSBURG     CLOUDY    60  51  72 SW5       30.03S
MORGANTOWN     CLOUDY    63  54  72 W10       30.01S
$$

WVZ025-035-042-045-290700-
Southern West Virginia

CITY           SKY/WX    TMP DP  RH WIND       PRES   REMARKS
BECKLEY        PTCLDY    52  49  89 E6        30.05F
LOGAN          CLOUDY    57  52  82 CALM      30.00F
BLUEFIELD      CLOUDY    53  48  83 E3        30.06F
LEWISBURG      CLOUDY    58  53  86 NW3       30.03S
$$

WVZ047-290700-
Northern Mountains of West Virginia

CITY           SKY/WX    TMP DP  RH WIND       PRES   REMARKS
ELKINS         CLOUDY    57  52  83 CALM      30.06R
$$

WVZ052-290700-
Eastern Panhandle of West Virginia

CITY           SKY/WX    TMP DP  RH WIND       PRES   REMARKS
MARTINSBURG    LGT RAIN  63  61  93 N13       30.02S
PETERSBURG     RAIN      64  63  95 CALM      30.01F
$$




USA.gov is the U.S. government's official web portal to all federal, state and local government web resources and services.